CCA1692 ZSPD-ZSAM

Flight info

Callsign CCA1692
Flight time N/A
Altitude 23600
Route NXD84D NXD W131 AKDIM A470 ENVEN ENVE8X
Aircraft B738/M-SDE3GHIJ2J3J5M1RVWXY/LB2D1

Departure

Time 2026-05-04 14:07
Airport Shanghai Pudong International Airport (ZSPD)

Arrival

Time N/A
Airport Xiamen Gaoqi International Airport (ZSAM)
Time Latitude Longitude Altitude Speed Heading
2026-05-04 13:32 31.13661 121.80564 21 ft 0 kts 161°
2026-05-04 13:54 31.13670 121.80560 21 ft 2 kts 161°
2026-05-04 13:54 31.13680 121.80557 21 ft 2 kts 161°
2026-05-04 13:54 31.13709 121.80549 21 ft 2 kts 181°
2026-05-04 13:55 31.13724 121.80550 21 ft 2 kts 195°
2026-05-04 13:55 31.13751 121.80566 21 ft 2 kts 221°
2026-05-04 13:55 31.13761 121.80579 21 ft 2 kts 234°
2026-05-04 13:56 31.13769 121.80594 21 ft 2 kts 247°
2026-05-04 13:56 31.13771 121.80602 21 ft 1 kts 254°
2026-05-04 13:56 31.13772 121.80605 21 ft 0 kts 253°
2026-05-04 13:58 31.13768 121.80591 21 ft 5 kts 251°
2026-05-04 13:58 31.13758 121.80534 21 ft 9 kts 268°
2026-05-04 13:59 31.13786 121.80447 21 ft 12 kts 317°
2026-05-04 13:59 31.13875 121.80407 21 ft 14 kts 341°
2026-05-04 13:59 31.14084 121.80331 21 ft 13 kts 343°
2026-05-04 14:00 31.14169 121.80295 21 ft 12 kts 326°
2026-05-04 14:00 31.14143 121.80096 21 ft 15 kts 248°
2026-05-04 14:00 31.14114 121.79991 21 ft 0 kts 252°
2026-05-04 14:01 31.14110 121.79976 21 ft 4 kts 251°
2026-05-04 14:01 31.14098 121.79933 21 ft 6 kts 251°
2026-05-04 14:01 31.14052 121.79768 21 ft 14 kts 255°
2026-05-04 14:02 31.14034 121.79644 21 ft 15 kts 263°
2026-05-04 14:02 31.14104 121.79578 21 ft 15 kts 341°
2026-05-04 14:02 31.14217 121.79536 21 ft 18 kts 343°
2026-05-04 14:02 31.14347 121.79485 21 ft 20 kts 343°
2026-05-04 14:03 31.14494 121.79433 21 ft 23 kts 341°
2026-05-04 14:03 31.14658 121.79370 21 ft 25 kts 342°
2026-05-04 14:03 31.14823 121.79307 21 ft 25 kts 342°
2026-05-04 14:03 31.14998 121.79240 21 ft 27 kts 342°
2026-05-04 14:04 31.15291 121.79129 21 ft 12 kts 343°
2026-05-04 14:04 31.15381 121.79097 21 ft 14 kts 342°
2026-05-04 14:04 31.15483 121.79058 21 ft 16 kts 343°
2026-05-04 14:05 31.15736 121.78963 21 ft 21 kts 342°
2026-05-04 14:05 31.15854 121.78919 21 ft 6 kts 342°
2026-05-04 14:05 31.15901 121.78902 21 ft 7 kts 341°
2026-05-04 14:06 31.15956 121.78869 21 ft 10 kts 296°
2026-05-04 14:06 31.15956 121.78795 21 ft 4 kts 253°
2026-05-04 14:06 31.15946 121.78754 21 ft 6 kts 253°
2026-05-04 14:06 31.15928 121.78691 21 ft 8 kts 239°
2026-05-04 14:07 31.15863 121.78695 21 ft 19 kts 163°
2026-05-04 14:07 31.15415 121.78864 21 ft 112 kts 161°
2026-05-04 14:07 31.14427 121.79238 121 ft 177 kts 162°
2026-05-04 14:07 31.13254 121.79659 1191 ft 176 kts 162°
2026-05-04 14:08 31.12089 121.80106 1985 ft 182 kts 162°
2026-05-04 14:08 31.10835 121.80564 2518 ft 197 kts 164°
2026-05-04 14:08 31.09467 121.81025 2957 ft 217 kts 165°
2026-05-04 14:08 31.07927 121.81530 3004 ft 232 kts 165°
2026-05-04 14:09 31.04750 121.82568 2975 ft 236 kts 165°
2026-05-04 14:09 31.03140 121.82930 2971 ft 234 kts 178°
2026-05-04 14:10 30.99937 121.81924 3447 ft 254 kts 214°
2026-05-04 14:10 30.98666 121.80521 3850 ft 249 kts 235°
2026-05-04 14:10 30.97956 121.78725 3876 ft 243 kts 252°
2026-05-04 14:10 30.97474 121.76845 3871 ft 241 kts 253°
2026-05-04 14:11 30.96975 121.74957 3871 ft 241 kts 252°
2026-05-04 14:11 30.96216 121.71182 3965 ft 239 kts 272°
2026-05-04 14:11 30.96485 121.69256 4001 ft 242 kts 284°
2026-05-04 14:12 30.96912 121.67364 4009 ft 242 kts 284°
2026-05-04 14:12 30.97337 121.65379 4559 ft 254 kts 283°
2026-05-04 14:12 30.97486 121.61497 6612 ft 245 kts 265°
2026-05-04 14:13 30.97265 121.59516 7367 ft 250 kts 266°
2026-05-04 14:13 30.97078 121.57471 8127 ft 254 kts 268°
2026-05-04 14:13 30.96938 121.55444 8899 ft 257 kts 269°
2026-05-04 14:13 30.96815 121.53346 9663 ft 260 kts 269°
2026-05-04 14:14 30.96692 121.51240 10452 ft 262 kts 269°
2026-05-04 14:14 30.96436 121.46999 11927 ft 268 kts 269°
2026-05-04 14:14 30.96306 121.44870 12797 ft 266 kts 268°
2026-05-04 14:15 30.96042 121.40568 14294 ft 270 kts 268°
2026-05-04 14:15 30.95772 121.36201 15781 ft 271 kts 267°
2026-05-04 14:16 30.95498 121.31786 17200 ft 274 kts 267°
2026-05-04 14:16 30.95360 121.29569 17838 ft 277 kts 266°
2026-05-04 14:17 30.95083 121.25141 19154 ft 278 kts 266°
2026-05-04 14:17 30.94941 121.22874 19609 ft 286 kts 266°
2026-05-04 14:17 30.94635 121.18034 20209 ft 311 kts 266°
2026-05-04 14:18 30.94472 121.15464 20447 ft 325 kts 266°
2026-05-04 14:18 30.94126 121.10032 20934 ft 350 kts 266°
2026-05-04 14:19 30.93750 121.04166 21473 ft 372 kts 266°
2026-05-04 14:19 30.93554 121.01127 22088 ft 373 kts 266°
2026-05-04 14:19 30.93359 120.98129 22712 ft 373 kts 266°
2026-05-04 14:19 30.93163 120.95124 23335 ft 373 kts 266°
2026-05-04 14:20 30.92965 120.92090 23784 ft 378 kts 266°
2026-05-04 14:20 30.92768 120.89072 24445 ft 377 kts 266°
2026-05-04 14:20 30.92566 120.86009 25154 ft 375 kts 265°
2026-05-04 14:21 30.92168 120.79971 25668 ft 372 kts 265°
2026-05-04 14:21 30.91970 120.76993 25686 ft 372 kts 265°
2026-05-04 14:21 30.91766 120.73933 25695 ft 384 kts 265°
2026-05-04 14:21 30.91555 120.70788 25693 ft 396 kts 265°
2026-05-04 14:22 30.91336 120.67546 25690 ft 407 kts 265°
2026-05-04 14:22 30.91112 120.64223 25689 ft 418 kts 265°
2026-05-04 14:22 30.90881 120.60802 25680 ft 425 kts 265°
2026-05-04 14:22 30.90649 120.57387 25684 ft 426 kts 265°
2026-05-04 14:23 30.90000 120.50500 25678 ft 426 kts 260°
2026-05-04 14:23 30.89186 120.47181 25684 ft 429 kts 251°
2026-05-04 14:23 30.87851 120.44092 25683 ft 431 kts 242°
2026-05-04 14:24 30.86095 120.41235 25681 ft 435 kts 235°
2026-05-04 14:24 30.84080 120.38596 25678 ft 438 kts 230°
2026-05-04 14:24 30.81790 120.36228 25674 ft 441 kts 224°
2026-05-04 14:24 30.79319 120.34068 25680 ft 443 kts 221°
2026-05-04 14:25 30.76764 120.32001 25678 ft 446 kts 219°
2026-05-04 14:25 30.71633 120.27966 25681 ft 445 kts 219°
2026-05-04 14:25 30.69069 120.25938 25678 ft 445 kts 220°
2026-05-04 14:26 30.66518 120.23901 25678 ft 444 kts 220°
2026-05-04 14:26 30.63980 120.21860 25684 ft 444 kts 220°
2026-05-04 14:26 30.61432 120.19797 25674 ft 444 kts 220°
2026-05-04 14:26 30.58891 120.17735 25679 ft 444 kts 220°
2026-05-04 14:27 30.56362 120.15675 25680 ft 443 kts 220°
2026-05-04 14:27 30.53833 120.13614 25682 ft 444 kts 220°
2026-05-04 14:27 30.51292 120.11541 25678 ft 443 kts 220°
2026-05-04 14:27 30.48755 120.09471 25683 ft 443 kts 220°
2026-05-04 14:28 30.46232 120.07412 25687 ft 443 kts 220°
2026-05-04 14:28 30.43700 120.05353 25675 ft 444 kts 219°
2026-05-04 14:28 30.41103 120.03399 25682 ft 446 kts 217°
2026-05-04 14:28 30.38409 120.01543 25678 ft 450 kts 216°
2026-05-04 14:29 30.32952 119.97972 25682 ft 452 kts 215°
2026-05-04 14:29 30.27420 119.94378 25679 ft 453 kts 215°
2026-05-04 14:30 30.24687 119.92592 25681 ft 452 kts 215°
2026-05-04 14:30 30.21958 119.90801 25679 ft 452 kts 215°
2026-05-04 14:30 30.16498 119.87203 25687 ft 450 kts 215°
2026-05-04 14:31 30.13770 119.85401 25688 ft 450 kts 216°
2026-05-04 14:31 30.08312 119.81795 25694 ft 449 kts 216°
2026-05-04 14:32 30.02881 119.78197 25695 ft 449 kts 216°
2026-05-04 14:32 30.00172 119.76383 25695 ft 447 kts 216°
2026-05-04 14:32 29.97472 119.74568 25693 ft 448 kts 216°
2026-05-04 14:32 29.94731 119.72722 25692 ft 447 kts 216°
2026-05-04 14:33 29.92059 119.70924 25701 ft 446 kts 216°
2026-05-04 14:33 29.89334 119.69125 25705 ft 449 kts 214°
2026-05-04 14:33 29.86519 119.67513 25701 ft 453 kts 209°
2026-05-04 14:33 29.83474 119.66463 25710 ft 463 kts 198°
2026-05-04 14:34 29.80265 119.65973 25717 ft 469 kts 192°
2026-05-04 14:34 29.76965 119.65727 25721 ft 471 kts 190°
2026-05-04 14:34 29.73659 119.65572 25732 ft 474 kts 189°
2026-05-04 14:34 29.70374 119.65424 25712 ft 472 kts 189°
2026-05-04 14:35 29.67057 119.65261 25733 ft 472 kts 190°
2026-05-04 14:35 29.63776 119.65082 25724 ft 470 kts 190°
2026-05-04 14:35 29.60498 119.64909 25729 ft 473 kts 189°
2026-05-04 14:35 29.57210 119.64793 25728 ft 473 kts 189°
2026-05-04 14:36 29.53938 119.64715 25716 ft 473 kts 189°
2026-05-04 14:36 29.50634 119.64601 25722 ft 470 kts 189°
2026-05-04 14:36 29.47383 119.64447 25727 ft 470 kts 190°
2026-05-04 14:36 29.44102 119.64263 25724 ft 470 kts 191°
2026-05-04 14:37 29.40808 119.64062 25723 ft 471 kts 191°
2026-05-04 14:37 29.37521 119.63857 25719 ft 471 kts 191°
2026-05-04 14:37 29.34255 119.63653 25716 ft 468 kts 191°
2026-05-04 14:37 29.30987 119.63449 25716 ft 468 kts 191°
2026-05-04 14:38 29.27719 119.63245 25711 ft 468 kts 191°
2026-05-04 14:38 29.24466 119.63043 25711 ft 469 kts 191°
2026-05-04 14:38 29.21169 119.62839 25720 ft 471 kts 191°
2026-05-04 14:38 29.17921 119.62640 25709 ft 468 kts 191°
2026-05-04 14:39 29.14674 119.62441 25711 ft 469 kts 191°
2026-05-04 14:39 29.11369 119.62238 25705 ft 470 kts 191°
2026-05-04 14:39 29.08112 119.62039 25710 ft 467 kts 191°
2026-05-04 14:40 29.01567 119.61634 25706 ft 468 kts 191°
2026-05-04 14:40 28.98308 119.61430 25721 ft 467 kts 191°
2026-05-04 14:40 28.95062 119.61227 25721 ft 468 kts 192°
2026-05-04 14:40 28.91781 119.61019 25725 ft 469 kts 192°
2026-05-04 14:41 28.88529 119.60816 25721 ft 468 kts 191°
2026-05-04 14:41 28.85254 119.60613 25730 ft 469 kts 191°
2026-05-04 14:41 28.78715 119.60204 25745 ft 468 kts 191°
2026-05-04 14:42 28.72187 119.59798 25754 ft 469 kts 192°
2026-05-04 14:42 28.68927 119.59592 25754 ft 469 kts 192°
2026-05-04 14:42 28.65645 119.59388 25744 ft 468 kts 192°
2026-05-04 14:43 28.62368 119.59184 25750 ft 469 kts 192°
2026-05-04 14:43 28.59112 119.58981 25747 ft 469 kts 192°
2026-05-04 14:43 28.55843 119.58778 25740 ft 470 kts 192°
2026-05-04 14:43 28.52585 119.58575 25740 ft 468 kts 192°
2026-05-04 14:44 28.49299 119.58372 25737 ft 470 kts 192°
2026-05-04 14:44 28.46027 119.58167 25735 ft 468 kts 192°
2026-05-04 14:44 28.42762 119.57971 25746 ft 469 kts 191°
2026-05-04 14:44 28.39500 119.57784 25742 ft 470 kts 191°
2026-05-04 14:45 28.36230 119.57604 25753 ft 467 kts 191°
2026-05-04 14:45 28.32957 119.57425 25751 ft 470 kts 192°
2026-05-04 14:45 28.29706 119.57246 25748 ft 473 kts 191°
2026-05-04 14:45 28.26391 119.57065 25753 ft 469 kts 191°
2026-05-04 14:46 28.23145 119.56889 25748 ft 471 kts 191°
2026-05-04 14:46 28.19854 119.56709 25760 ft 470 kts 191°
2026-05-04 14:46 28.16558 119.56528 25758 ft 469 kts 191°
2026-05-04 14:46 28.13297 119.56350 25758 ft 467 kts 192°
2026-05-04 14:47 28.10026 119.56169 25763 ft 472 kts 191°
2026-05-04 14:47 28.06715 119.56026 25766 ft 472 kts 190°
2026-05-04 14:47 28.03442 119.55949 25771 ft 470 kts 190°
2026-05-04 14:47 28.00141 119.55903 25778 ft 475 kts 189°
2026-05-04 14:48 27.96829 119.55869 25781 ft 473 kts 189°
2026-05-04 14:48 27.93508 119.55842 25774 ft 475 kts 189°
2026-05-04 14:48 27.90172 119.55814 25773 ft 474 kts 189°
2026-05-04 14:48 27.86853 119.55800 25772 ft 474 kts 189°
2026-05-04 14:49 27.83589 119.55792 25770 ft 472 kts 189°
2026-05-04 14:49 27.80261 119.55786 25769 ft 475 kts 189°
2026-05-04 14:49 27.76965 119.55776 25767 ft 476 kts 189°
2026-05-04 14:49 27.73650 119.55765 25770 ft 474 kts 189°
2026-05-04 14:50 27.70325 119.55753 25765 ft 474 kts 189°
2026-05-04 14:50 27.67051 119.55742 25770 ft 472 kts 189°
2026-05-04 14:50 27.63736 119.55725 25772 ft 476 kts 189°
2026-05-04 14:50 27.60417 119.55708 25773 ft 472 kts 189°
2026-05-04 14:51 27.57139 119.55691 25775 ft 471 kts 189°
2026-05-04 14:51 27.53832 119.55673 25781 ft 473 kts 189°
2026-05-04 14:51 27.50550 119.55653 25780 ft 475 kts 189°
2026-05-04 14:51 27.47208 119.55634 25780 ft 473 kts 189°
2026-05-04 14:52 27.43902 119.55614 25776 ft 472 kts 189°
2026-05-04 14:52 27.40621 119.55599 25776 ft 474 kts 189°
2026-05-04 14:52 27.37324 119.55589 25776 ft 474 kts 188°
2026-05-04 14:52 27.33986 119.55583 25775 ft 473 kts 188°
2026-05-04 14:53 27.30692 119.55582 25774 ft 472 kts 188°
2026-05-04 14:53 27.27395 119.55581 25772 ft 472 kts 188°
2026-05-04 14:53 27.24069 119.55576 25777 ft 472 kts 189°
2026-05-04 14:53 27.20783 119.55563 25775 ft 473 kts 189°
2026-05-04 14:54 27.17488 119.55545 25773 ft 470 kts 189°
2026-05-04 14:54 27.14221 119.55521 25773 ft 474 kts 189°
2026-05-04 14:54 27.10892 119.55497 25777 ft 470 kts 189°
2026-05-04 14:54 27.07606 119.55476 25772 ft 472 kts 189°
2026-05-04 14:55 27.04317 119.55451 25778 ft 475 kts 189°
2026-05-04 14:55 27.01001 119.55426 25779 ft 474 kts 189°
2026-05-04 14:55 26.97712 119.55406 25780 ft 472 kts 189°
2026-05-04 14:55 26.94384 119.55383 25780 ft 474 kts 188°
2026-05-04 14:56 26.91095 119.55362 25774 ft 473 kts 188°
2026-05-04 14:56 26.87819 119.55341 25777 ft 472 kts 188°
2026-05-04 14:56 26.84549 119.55321 25778 ft 470 kts 189°
2026-05-04 14:56 26.81195 119.55299 25772 ft 474 kts 188°
2026-05-04 14:57 26.77913 119.55278 25778 ft 470 kts 188°
2026-05-04 14:57 26.74634 119.55257 25775 ft 473 kts 188°
2026-05-04 14:57 26.73515 119.55250 25770 ft 472 kts 188°